This is the latest recevied weather packets stored in our database for station/object K7JGC-9. If no packets are shown the sender has not sent any weather packets the latest 1 day(s).
| Time | Temp. | Humidity | Pressure | Rain* | Wind** | Luminosity | Snow |
|---|---|---|---|---|---|---|---|
| 1778019688 | 18.89° C | 67% | 1016.7 hPa | 0 mm | 0 m/s | 123 W/m² | - |
| 1778017885 | 18.89° C | 68% | 1016.8 hPa | 0 mm | 0 m/s | 156 W/m² | - |
| 1778016084 | 17.78° C | 70% | 1016.9 hPa | 0 mm | 0 m/s | 140 W/m² | - |
| 1778014285 | 17.78° C | 70% | 1017.1 hPa | 0 mm | 0 m/s | 131 W/m² | - |
| 1778012482 | 17.78° C | 73% | 1017.2 hPa | 0 mm | 0 m/s | 139 W/m² | - |
| 1778010683 | 16.67° C | 73% | 1017.4 hPa | 0 mm | 0 m/s | 136 W/m² | - |
| 1778008883 | 16.11° C | 75% | 1017.5 hPa | 0 mm | 0 m/s | 99 W/m² | - |
| 1778007080 | 15.56° C | 77% | 1017.5 hPa | 0 mm | 0 m/s | 70 W/m² | - |
| 1778005278 | 15.56° C | 79% | 1017.7 hPa | 0 mm | 0 m/s | 71 W/m² | - |
| 1778003475 | 15.56° C | 78% | 1017.4 hPa | 0 mm | 0 m/s | 82 W/m² | - |
| 1778001674 | 15.56° C | 81% | 1017.3 hPa | 0 mm | 0 m/s | 66 W/m² | - |
| 1777999874 | 15° C | 82% | 1017 hPa | 0 mm | 0 m/s | 70 W/m² | - |
| 1777998069 | 14.44° C | 81% | 1016.9 hPa | 0 mm | 0 m/s | 105 W/m² | - |
| 1777996268 | 13.89° C | 84% | 1016.8 hPa | 0 mm | 0 m/s | 53 W/m² | - |
| 1777994464 | 13.33° C | 85% | 1016.8 hPa | 0 mm | 0 m/s | 31 W/m² | - |
| 1777992662 | 13.33° C | 85% | 1016.6 hPa | 0 mm | 0 m/s | 20 W/m² | - |
| 1777990856 | 12.78° C | 85% | 1016.4 hPa | 0 mm | 0 m/s | 18 W/m² | - |
| 1777989054 | 12.78° C | 85% | 1016.2 hPa | 0 mm | 0 m/s | 8 W/m² | - |
| 1777987252 | 12.78° C | 85% | 1016 hPa | 0 mm | 0 m/s | 3 W/m² | - |
| 1777985453 | 12.78° C | 85% | 1015.7 hPa | 0 mm | 0 m/s | 0 W/m² | - |
| 1777983650 | 12.78° C | 85% | 1015.7 hPa | 0 mm | 0 m/s | 0 W/m² | - |
| 1777981845 | 12.78° C | 83% | 1015.7 hPa | 0 mm | 0 m/s | 0 W/m² | - |
| 1777980044 | 13.33° C | 84% | 1015.6 hPa | 0 mm | 0 m/s | 0 W/m² | - |
| 1777978243 | 13.33° C | 85% | 1015.4 hPa | 0 mm | 0 m/s | 0 W/m² | - |
* Rain latest hour (hover to see other rain measurements)
** Current wind speed in m/s (hover to see current wind gust speed)